Regional Weather Roundup
Issued by NWS

Home | Current Version | Previous Version | Text Only | Print | Product List | Glossary Off
Versions: 1 2 3 4 5 6 7 8 9 10 11 12 13 14 15 16 17 18 19 20 21 22 23 24 25 26 27 28 29 30 31 32 33 34 35 36 37 38 39 40 41 42 43 44 45 46 47 48 49 50

000
ASUS45 KTFX 011610
RWRMT
MONTANA REGIONAL WEATHER ROUNDUP
NATIONAL WEATHER SERVICE GREAT FALLS MT
1000 AM MDT SAT AUG 01 2015

NOTE: "FAIR" INDICATES FEW OR NO CLOUDS BELOW 12000 FEET WITH NO
SIGNIFICANT WEATHER AND/OR OBSTRUCTIONS TO VISIBILITY.

MTZ001>007-043-011700-
WEST OF THE DIVIDE

CITY           SKY/WX    TMP DP  RH WIND       PRES   REMARKS
KALISPELL      SUNNY     74  39  28 NE5       30.03F
MISSOULA       SUNNY     68  39  34 CALM      30.11F
BUTTE          SUNNY     67  34  29 CALM      30.24F
MULLAN PASS    SUNNY     75  24  15 NW3       30.23S
DEER LODGE       N/A     70  43  37 CALM      30.21S
EUREKA           N/A     70  37  30 CALM      30.02F
HAMILTON         N/A     73  39  29 CALM      30.11F
LIBBY            N/A     70  36  28 N3        30.01F
RONAN            N/A     80  41  25 SE1       30.08S
$$

MTZ008-052>055-011700-
SOUTHWEST MONTANA

CITY           SKY/WX    TMP DP  RH WIND       PRES   REMARKS
BOZEMAN        SUNNY     73  42  32 VRB3      30.17F
DILLON         SUNNY     68  41  37 SW8       30.22F
W YELLOWSTONE    N/A     57  39  51 CALM      30.36F
THREE FORKS      N/A     71  71 100 CALM      30.14F
TWIN BRIDGES     N/A     66  43  43 S5        30.17F
$$

MTZ009-010-012-014-046-048-049-054-011700-
EAST SLOPES AND CENTRAL MONTANA

CITY           SKY/WX    TMP DP  RH WIND       PRES   REMARKS
CUT BANK       SUNNY     87  28  12 W16       30.00F
GREAT FALLS    SUNNY     82  38  20 SW12      30.03F
MALMSTROM AFB  SUNNY     80  38  22 W13       30.02F
HELENA         SUNNY     70  40  33 N3        30.12F
$$

MTZ011-013-016-021-045-047-050-051-011700-
NORTH CENTRAL MONTANA

CITY           SKY/WX    TMP DP  RH WIND       PRES   REMARKS
HAVRE          SUNNY     79  40  24 SW16      29.93F
LEWISTOWN      SUNNY     84  35  17 W9        30.07F
CHINOOK          N/A     81  43  26 W13       29.91F
FORT BENTON      N/A     84  37  18 SW12      29.97F
$$

MTZ017>020-022>027-061-062-011700-
NORTHEAST MONTANA

CITY           SKY/WX    TMP DP  RH WIND       PRES   REMARKS
GLASGOW        SUNNY     78  52  40 SE10      29.89F
JORDAN           N/A     91  38  15 SW22G28   29.92F
SIDNEY         SUNNY    N/A N/A N/A S8        29.90F
WOLF POINT     SUNNY     77  54  44 CALM      29.91F
MALTA            N/A     76  52  43 W6        29.87F VSB 0
PLENTYWOOD       N/A     79  55  44 S6        29.90F
POPLAR           N/A     75  54  46 S3        29.91F
$$

MTZ028>42-056>058-011700-
SOUTHCENTRAL AND SOUTHEAST MONTANA

CITY           SKY/WX    TMP DP  RH WIND       PRES   REMARKS
BAKER          SUNNY     86  45  23 NW14      29.99R
BILLINGS       MOSUNNY   74  40  29 SW14      30.07S
LIVINGSTON     SUNNY     77  40  26 NW15      30.15F
MILES CITY     SUNNY     83  44  25 W5        29.97F
FORSYTH          N/A     79  43  27 W6        29.97F
LAUREL           N/A     77  39  25 S9        30.05F
ROUNDUP          N/A     77  40  26 S6        29.95F
$$

REGIONAL REPORTS...DAKOTAS

CITY           SKY/WX    TMP DP  RH WIND       PRES   REMARKS
WILLISTON      SUNNY     77  57  50 SW6       29.90F
MINOT          SUNNY     77  53  43 SE6       29.88F
DICKINSON      SUNNY     79  53  40 N8        29.92F
CROSBY         FAIR      77  57  50 S12       29.90F
BISMARCK       SUNNY     80  59  48 S5        29.88S
GRAND FORKS    MOSUNNY   78  53  41 SW9       29.88F
FARGO          SUNNY     78  51  38 VRB5      29.92F
BUFFALO SD       N/A     89  37  16 NW14      29.91F
RAPID CITY     SUNNY     81  58  45 S8        30.03S
$$

REGIONAL REPORTS...WYOMING/IDAHO/WASHINGTON

CITY           SKY/WX    TMP DP  RH WIND       PRES   REMARKS
GILLETTE       SUNNY     83  42  23 NE9       30.11F
SHERIDAN       SUNNY     86  42  21 S3        30.09F
BUFFALO WY     SUNNY     83  37  19 VRB6      30.17F
CODY           SUNNY     82  36  18 SW5       30.19S
YELLOWSTONE LA   N/A     59  45  59 VRB3      30.45S
IDAHO FALLS    SUNNY     71  45  39 NE6       30.21S
SALMON         SUNNY     64  43  45 CALM      30.19F
BOISE          SUNNY     84  37  18 SE7       30.05R
SPOKANE        MOSUNNY   79  34  19 SE7       29.99R
$$

REGIONAL REPORTS...ALBERTA

CITY           SKY/WX    TMP DP  RH WIND       PRES   REMARKS
EDMONTON       SUNNY     63  54  72 NW3       29.99F
CALGARY        MOSUNNY   73  46  38 N6        29.99F
LETHBRIDGE     SUNNY     73  45  35 W6        29.96F
MEDICINE HAT   MOSUNNY   73  48  40 W9        29.91S
WATERTON GATE    N/A     81  39  22 SW8         N/A
MILK RIVER       N/A     81  39  22 W7          N/A
ONEFOUR          N/A     75  43  31 NW18        N/A
$$

REGIONAL REPORTS...SASKATCHEWAN

CITY           SKY/WX    TMP DP  RH WIND       PRES   REMARKS
SWIFT CURRENT  SUNNY     75  50  41 W13       29.85S
REGINA         MOSUNNY   79  57  47 VRB2      29.87F
SASKATOON      PTSUNNY   68  57  68 NW7       29.89S
CYPRESS HILLS    N/A     79  36  21 NW8G17      N/A
VAL MARIE        N/A     77  52  41 S12         N/A
ROCKGLEN         N/A     79  54  41 S13         N/A
$$



USA.gov is the U.S. government's official web portal to all federal, state and local government web resources and services.